DRAGON CRS-23 (49117 NORAD) Tracking and Keplerian Element Data

This shows tracking and keplerian element data for the satellite.

Feedback or suggestion? Click here.




ElementValue
Catalog49117
NameDRAGON CRS-23
Epoch Orbit30305
Epoch Day261.48013071
Epoch Year2021
RAAN241.4315
Inclination51.6437
Eccentricity0.0003236
Argument of Perigee29.3104
Mean Anonmoly116.0187
Mean Motion15.48406409
Decay Rate1.802E-05
L11 49117U 21078A 21261.48013071 .00001802 00000-0 41658-4 0 9995
L22 49117 51.6437 241.4315 0003236 29.3104 116.0187 15.48406409303059

Live tracking and technical data element details for DRAGON CRS-23 (NORAD 49117). DRAGON CRS-23 can be tracked NOW for your location showing map with azimuth and elevation plus other details from your city location.

Track the satellite on the map from your city or location and see movement details for azimuth, elevation, latitude, longitude, range, height, and movement on the map or in text.







IsCatalogInMostPopularTable: catalog: 49117, numindb: 11
Update: records affected: 1



GetName: 49117 DRAGON CRS-23

Hit Count: updated at: Fri, 24 Sep 2021 18:29:53 GMT